Hourly Data Report for October 28, 2016

All times are specified in Local Standard Time (LST). Add 1 hour to adjust for Daylight Saving Time where and when it is observed.

POND INLET A
NUNAVUT

72°41'22.000" N
77°58'08.000" W
61.60 m
2403206
71095
YIO

Download Data

Hourly Data (October 2016)
Hourly Data Report for October 28, 2016
Temp Definition
°C
Dew Point Temp Definition
°C
Rel Hum Definition
%
Wind Dir Definition
10's deg

Wind Spd Definition
km/h
Visibility Definition
km
Stn Press Definition
kPa
Hmdx Definition


Wind Chill Definition


Weather Definition


TIME
00:00 Legend Double Dagger -5.8 -9.9 73 7 28 16.1 100.18   -14 LegendNANA
01:00 Legend Double Dagger -5.8 -8.7 80 7 35 16.1 100.16   -15 LegendNANA
02:00 Legend Double Dagger -5.7 -8.5 81 7 37 14.5 100.15   -15 Snow
03:00 Legend Double Dagger -5.7 -7.0 91 7 34 2.4 100.16   -14 Snow
04:00 Legend Double Dagger -5.0 -6.7 88 4 26 3.6 100.14   -12 Snow
05:00 Legend Double Dagger -4.7 -5.8 92 5 48 1.0 100.06   -14 Snow
06:00 Legend Double Dagger -4.5 -6.5 86 6 35 2.8 100.09   -13 Snow
07:00 Legend Double Dagger -4.1 -7.1 80 6 39 4.8 100.03   -13 Snow
08:00 Legend Double Dagger -4.1 -5.8 88 5 32 2.8 99.96   -12 Snow
09:00 Legend Double Dagger -3.5 -4.3 94 7 55 0.4 99.87   -13 Heavy Snow
10:00 Legend Double Dagger -4.3 -6.0 88 7 30 16.1 99.97   -12 Snow
11:00 Legend Double Dagger -4.6 -7.1 83 8 35 8.1 100.06   -13 Snow
12:00 Legend Double Dagger -5.6 -8.0 83 8 30 8.1 100.15   -14 Snow
13:00 Legend Double Dagger -6.2 -11.0 69 8 30 16.1 100.27   -15 LegendNANA
14:00 Legend Double Dagger -6.7 -13.2 60 8 28 16.1 100.33   -15 LegendNANA
15:00 Legend Double Dagger -7.5 -12.7 67 9 22 16.1 100.44   -15 LegendNANA
16:00 Legend Double Dagger -8.5 -15.0 60 9 22 16.1 100.53   -16 LegendNANA
17:00 Legend Double Dagger -8.4 -16.5 53 8 18 16.1 100.59   -15 LegendNANA
18:00 Legend Double Dagger -8.1 -17.5 47 8 22 16.1 100.62   -16 LegendNANA
19:00 Legend Double Dagger -8.1 -16.9 50 8 26 16.1 100.61   -16 LegendNANA
20:00 Legend Double Dagger -8.1 -13.8 64 8 18 16.1 100.63   -15 LegendNANA
21:00 Legend Double Dagger -8.1 -11.6 76 10 22 16.1 100.59   -16 LegendNANA
22:00 Legend Double Dagger -7.5 -9.9 83 9 17 16.1 100.57   -14 Snow
23:00 Legend Double Dagger -6.4 -8.2 87 5 35 16.1 100.43   -15 LegendNANA

Notes on Data Quality.

Legend

  • E = Estimated
  • M = Missing
  • NA = Not Available
  • ‡ = Partner data that is not subject to review by the National Climate Archives
Date modified: